Location: Overspoor
(51.4747°N, 5.6641°E)
Time: 22:10:06
(UTC+02:00)

RS-15 - Pass Details

Date: 05 July 2022
Orbit: 1881 x 2163 km, 64.8° (Epoch: 15 August)

Event Time Altitude Azimuth Distance (km) Brightness Sun altitude
Rises 01:30:13 0° 321° (NW) 5,701 11.4 -15.7°
Reaches altitude 10° 01:33:51 10° 316° (NW) 4,692 10.7 -15.7°
Maximum altitude 01:45:16 47° 248° (WSW) 2,654 8.5 -15.7°
Enters shadow 01:53:36 19° 187° (S) 3,842 8.9 -15.7°
